Location: Bethune
(34.4150°N, 80.3490°W)
Time: 19:04:11
(UTC-04:00)

ISS - Visible Passes

Search period start: 05 May 2021 00:00
Search period end: 15 May 2021 00:00
Orbit: 418 x 421 km, 51.6° (Epoch: 05 May)

Date Brightness Start Highest point End Pass type
(mag) Time Alt. Az. Time Alt. Az. Time Alt. Az.
11 May -0.7 05:29:39 10° N 05:31:53 16° NNE 05:34:07 10° ENE visible
12 May -0.3 04:43:03 10° N 04:44:13 11° NNE 04:45:24 10° NE visible
13 May -2.3 05:30:49 10° NNW 05:34:03 41° NE 05:37:15 10° ESE visible
13 May -2.6 22:11:19 10° SW 22:13:24 35° WSW 22:13:24 35° WSW visible
14 May -1.3 04:43:39 10° NNW 04:46:30 25° NE 04:49:21 10° E visible
14 May -3.7 21:23:59 10° SSW 21:27:15 53° SE 21:30:32 10° ENE visible
14 May -0.7 23:02:03 10° WNW 23:04:17 16° NNW 23:06:30 10° N visible
